Starlink 30561

operational
NORAD ID: 58032 Int'l Des: 2023-156 Owner: SPXS Country: US Constellation: starlink
LEOCIRCULAR

Über Starlink 30561

Beschreibung wird geladen...

Live-Position

3D-Globus wird geladen...

Nächste Überflüge

Höhenverlauf

Altitude vs Time

uPlot chart will show altitude changes over time

Zweizeiliger Elementsatz

1 58032U 23156E 25258.98064088 .00000874 00000-0 41623-4 0 9999
2 58032 53.1605 169.9595 0001017 83.8436 276.2680 15.30199258109560
Epoch: 15. Sept. 2025 • Age: 11 hours

Aktueller Status

Höhe 480.5 km
Geschwindigkeit 7.63 km/s
Subsatellitenpunkt 50.68°N, 75.07°E
Startdatum 9. Okt. 2023
Alter 1.9 years
Typ internet

Technische Details

Klassifizierung Payload
Masse 730.00 kg
Trockenmasse 700.00 kg
Gesamtmasse 730.00 kg
Länge 0.30 m
Durchmesser 4.10 m
Spannweite 29.00 m
Form Box + pan
Hersteller SPXS
Bus-Typ Starlink V2M
Phasenstatus In Orbit
Besitzer/Staat SPXS/US

Große Konstellationen

Loading constellations...